Weather History for Edinburgh Airport, United Kingdom

Change the Weather History Date:

Sunday, January 29, 2012

  Actual Average Record
Temperature  
Mean Temperature 34 °F -  
Max Temperature 39 °F 44 °F 53 °F (2013)
Min Temperature 28 °F 32 °F 23 °F (2009)
Degree Days  
Heating Degree Days 32    
Moisture  
Dew Point 32 °F    
Average Humidity 91    
Maximum Humidity 100    
Minimum Humidity 81    
Precipitation  
Precipitation 0.00 in 0.06 in - ()
Sea Level Pressure  
Sea Level Pressure 30.43 in    
Wind  
Wind Speed 2 mph ()    
Max Wind Speed 9 mph    
Max Gust Speed -    
Visibility 6.2 miles    
Events      
Averages and records for this station are not official NWS values.
T = Trace of Precipitation, MM = Missing Value Source: Averaged Metar Reports

Daily Weather History Graph

Daily Weather History Graph

Search for Another Location

Airport:

Trip Planner

Search our weather history database for the weather conditions in past years. The results will help you decide how hot, cold, wet, or windy it might be!

Date:

Astronomy

Jan. 29, 2012 Rise Set
Actual Time 8:14 AM GMT 4:38 PM GMT
Civil Twilight 7:32 AM GMT 5:20 PM GMT
Nautical Twilight 6:47 AM GMT 6:06 PM GMT
Astronomical Twilight 6:04 AM GMT 6:49 PM GMT
Moon 9:38 AM GMT (1/29) No Moon Set
Length of Visible Light 9h 47m
Length of Day
8h 24m
Waxing Crescent, 34% of the Moon is Illuminated
Jan 29
Waxing Crescent
Jan 31
First Quarter
Feb 7
Full
Feb 14
Last Quarter
Feb 21
New

Hourly Weather History & Observations

Time (GMT) Temp. Windchill Dew Point Humidity Pressure Visibility Wind Dir Wind Speed Gust Speed Precip Events Conditions
12:20 AM 28.4 °F - 26.6 °F 93% 30.48 in 6.2 mi Calm Calm - N/A   Mostly Cloudy
12:50 AM 30.2 °F - 28.4 °F 93% 30.48 in 6.2 mi Calm Calm - N/A   Overcast
1:20 AM 30.2 °F - 28.4 °F 93% 30.45 in 6.2 mi Calm Calm - N/A   Mostly Cloudy
2:20 AM 30.2 °F - 30.2 °F 100% 30.45 in 6.2 mi WSW 2.3 mph - N/A   Mostly Cloudy
2:50 AM 30.2 °F - 30.2 °F 100% 30.45 in 6.2 mi Calm Calm - N/A   Overcast
3:20 AM 30.2 °F - 30.2 °F 100% 30.45 in 6.2 mi Calm Calm - N/A   Overcast
3:50 AM 32.0 °F - 30.2 °F 93% 30.45 in 6.2 mi Calm Calm - N/A   Overcast
4:20 AM 32.0 °F - 30.2 °F 93% 30.45 in 6.2 mi Calm Calm - N/A   Mostly Cloudy
4:50 AM 32.0 °F - 30.2 °F 93% 30.45 in 6.2 mi Calm Calm - N/A   Mostly Cloudy
5:20 AM 32.0 °F - 30.2 °F 93% 30.45 in 6.2 mi Calm Calm - N/A   Mostly Cloudy
5:50 AM 32.0 °F - 30.2 °F 93% 30.45 in 6.2 mi SSW 2.3 mph - N/A   Partly Cloudy
6:20 AM 32.0 °F - 30.2 °F 93% 30.45 in 6.2 mi Variable 2.3 mph - N/A   Scattered Clouds
6:50 AM 32.0 °F - 30.2 °F 93% 30.45 in 6.2 mi Calm Calm - N/A   Scattered Clouds
7:20 AM 32.0 °F - 30.2 °F 93% 30.45 in 6.2 mi Calm Calm - N/A   Scattered Clouds
7:50 AM 32.0 °F - 30.2 °F 93% 30.45 in 6.2 mi Calm Calm - N/A   Partly Cloudy
8:20 AM 32.0 °F - 32.0 °F 100% 30.45 in 6.2 mi WSW 2.3 mph - N/A   Partly Cloudy
8:50 AM 32.0 °F - 32.0 °F 100% 30.45 in 6.2 mi Variable 2.3 mph - N/A   Partly Cloudy
9:20 AM 33.8 °F - 32.0 °F 93% 30.45 in 6.2 mi SW 2.3 mph - N/A   Partly Cloudy
9:50 AM 33.8 °F 30.8 °F 32.0 °F 93% 30.45 in 6.2 mi WSW 3.5 mph - N/A   Partly Cloudy
10:20 AM 33.8 °F 29.6 °F 32.0 °F 93% 30.45 in 6.2 mi NE 4.6 mph - N/A   Scattered Clouds
10:50 AM 35.6 °F - 33.8 °F 93% 30.45 in 6.2 mi Variable 2.3 mph - N/A   Mostly Cloudy
11:20 AM 35.6 °F - 33.8 °F 93% 30.45 in 6.2 mi NNE 2.3 mph - N/A   Mostly Cloudy
11:50 AM 37.4 °F - 33.8 °F 87% 30.45 in 6.2 mi Variable 2.3 mph - N/A   Partly Cloudy
12:20 PM 37.4 °F 33.8 °F 33.8 °F 87% 30.45 in 6.2 mi NE 4.6 mph - N/A   Partly Cloudy
12:50 PM 39.2 °F 37.0 °F 35.6 °F 87% 30.42 in 6.2 mi Variable 3.5 mph - N/A   Partly Cloudy
1:20 PM 39.2 °F 35.9 °F 35.6 °F 87% 30.42 in 6.2 mi NE 4.6 mph - N/A   Partly Cloudy
1:50 PM 39.2 °F 34.2 °F 33.8 °F 81% 30.42 in 6.2 mi ENE 6.9 mph - N/A   Partly Cloudy
2:20 PM 39.2 °F 34.2 °F 33.8 °F 81% 30.42 in - East 6.9 mph - N/A   Clear
2:50 PM 39.2 °F 33.6 °F 33.8 °F 81% 30.42 in - East 8.1 mph - N/A   Clear
3:20 PM 39.2 °F 33.6 °F 33.8 °F 81% 30.42 in 6.2 mi East 8.1 mph - N/A   Partly Cloudy
3:50 PM 37.4 °F 33.8 °F 32.0 °F 81% 30.42 in 6.2 mi ESE 4.6 mph - N/A   Partly Cloudy
4:20 PM 37.4 °F 33.8 °F 32.0 °F 81% 30.42 in 6.2 mi East 4.6 mph - N/A   Partly Cloudy
4:50 PM 35.6 °F 30.7 °F 32.0 °F 87% 30.42 in 6.2 mi East 5.8 mph - N/A   Partly Cloudy
5:20 PM 33.8 °F 27.7 °F 30.2 °F 87% 30.42 in - SE 6.9 mph - N/A   Clear
5:50 PM 33.8 °F 27.7 °F 30.2 °F 87% 30.42 in - SE 6.9 mph - N/A   Clear
6:20 PM 33.8 °F 27.7 °F 32.0 °F 93% 30.42 in 6.2 mi ESE 6.9 mph - N/A   Partly Cloudy
6:50 PM 33.8 °F 27.7 °F 32.0 °F 93% 30.42 in 6.2 mi East 6.9 mph - N/A   Partly Cloudy
7:20 PM 35.6 °F 30.7 °F 32.0 °F 87% 30.42 in - ESE 5.8 mph - N/A   Clear
7:50 PM 33.8 °F 28.6 °F 32.0 °F 93% 30.42 in 6.2 mi East 5.8 mph - N/A   Partly Cloudy
8:20 PM 35.6 °F 29.9 °F 32.0 °F 87% 30.42 in 6.2 mi East 6.9 mph - N/A   Scattered Clouds
8:50 PM 35.6 °F 30.7 °F 32.0 °F 87% 30.39 in 6.2 mi ESE 5.8 mph - N/A   Scattered Clouds
9:20 PM 33.8 °F 29.6 °F 32.0 °F 93% 30.39 in 6.2 mi ENE 4.6 mph - N/A   Mostly Cloudy
9:50 PM 33.8 °F 28.6 °F 32.0 °F 93% 30.39 in 6.2 mi ENE 5.8 mph - N/A   Mostly Cloudy
10:20 PM 35.6 °F 28.6 °F 33.8 °F 93% 30.39 in 6.2 mi East 9.2 mph - N/A   Mostly Cloudy
10:50 PM 35.6 °F 29.9 °F 32.0 °F 87% 30.39 in 6.2 mi SE 6.9 mph - N/A   Mostly Cloudy
11:20 PM 33.8 °F 27.7 °F 32.0 °F 93% 30.39 in 6.2 mi East 6.9 mph - N/A   Scattered Clouds
11:50 PM 35.6 °F 28.6 °F 32.0 °F 87% 30.39 in 6.2 mi East 9.2 mph - N/A   Mostly Cloudy